TIANHUI 1-04 (49049 NORAD) Tracking and Keplerian Element Data

This shows tracking and keplerian element data for the satellite.

Feedback or suggestion? Click here.




ElementValue
Catalog49049
NameTIANHUI 1-04
Epoch Orbit792
Epoch Day262.30564057
Epoch Year2021
RAAN334.2631
Inclination97.4695
Eccentricity0.0001623
Argument of Perigee82.815
Mean Anonmoly2.3938
Mean Motion15.2336965
Decay Rate1.117E-05
L11 49049U 21067A 21262.30564057 .00001117 00000-0 49991-4 0 9991
L22 49049 97.4695 334.2631 0001623 82.8150 2.3938 15.23369650 7929

Live tracking and technical data element details for TIANHUI 1-04 (NORAD 49049). TIANHUI 1-04 can be tracked NOW for your location showing map with azimuth and elevation plus other details from your city location.

Track the satellite on the map from your city or location and see movement details for azimuth, elevation, latitude, longitude, range, height, and movement on the map or in text.







IsCatalogInMostPopularTable: catalog: 49049, numindb: 16
Update: records affected: 1



GetName: 49049 TIANHUI 1-04

Hit Count: updated at: Fri, 24 Sep 2021 17:35:02 GMT